Back to catalog

USA 176

AliveMilitaryGEO
NORAD 28158·PAYLOAD·🇺🇸 United States

Launched Feb 14, 2004 from Cape Canaveral Space Force Station

Loading…

TLE

FreshSource: Space-Track

Epoch: Sep 14, 2026, 06:40 UTC

1 28158U 04004A   26257.27837098 -.00000247  00000-0  00000-0 0  9992
2 28158  12.1695  25.3776 0009872 359.4518   9.9222  0.99467892 33836

Track USA 176 in real time with AllMySat

Download on the App Store